"datetime","# probes","# resolvers","can_ipv6","can_ipv6_prbs","can_tcp","can_tcp_prbs","can_tcp6","can_tcp6_prbs","does_ecs","does_ecs_prbs","does_flagday","does_flagday_prbs","does_rov4","does_rov4_prbs","does_rov6","does_rov6_prbs","does_qnamemin","doesnt_qnamemin","does_qnamemin_prbs","doesnt_qnamemin_prbs","does_nxdomain","doesnt_nxdomain","does_nxdomain_prbs","doesnt_nxdomain_prbs","has_ta_19036","hasnt_ta_19036","has_ta_19036_prbs","hasnt_ta_19036_prbs","has_ta_20326","hasnt_ta_20326","has_ta_20326_prbs","hasnt_ta_20326_prbs","can_rsamd5","cannot_rsamd5","broken_rsamd5","can_rsamd5_prbs","cannot_rsamd5_prbs","broken_rsamd5_prbs","can_dsa","cannot_dsa","broken_dsa","can_dsa_prbs","cannot_dsa_prbs","broken_dsa_prbs","can_rsasha1","cannot_rsasha1","broken_rsasha1","can_rsasha1_prbs","cannot_rsasha1_prbs","broken_rsasha1_prbs","can_dsansec3","cannot_dsansec3","broken_dsansec3","can_dsansec3_prbs","cannot_dsansec3_prbs","broken_dsansec3_prbs","can_rsansec3","cannot_rsansec3","broken_rsansec3","can_rsansec3_prbs","cannot_rsansec3_prbs","broken_rsansec3_prbs","can_rsasha256","cannot_rsasha256","broken_rsasha256","can_rsasha256_prbs","cannot_rsasha256_prbs","broken_rsasha256_prbs","can_rsasha512","cannot_rsasha512","broken_rsasha512","can_rsasha512_prbs","cannot_rsasha512_prbs","broken_rsasha512_prbs","can_eccgost","cannot_eccgost","broken_eccgost","can_eccgost_prbs","cannot_eccgost_prbs","broken_eccgost_prbs","can_ecdsa256","cannot_ecdsa256","broken_ecdsa256","can_ecdsa256_prbs","cannot_ecdsa256_prbs","broken_ecdsa256_prbs","can_ecdsa384","cannot_ecdsa384","broken_ecdsa384","can_ecdsa384_prbs","cannot_ecdsa384_prbs","broken_ecdsa384_prbs","can_ed25519","cannot_ed25519","broken_ed25519","can_ed25519_prbs","cannot_ed25519_prbs","broken_ed25519_prbs","can_ed448","cannot_ed448","broken_ed448","can_ed448_prbs","cannot_ed448_prbs","broken_ed448_prbs","can_gost","cannot_gost","broken_gost","can_gost_prbs","cannot_gost_prbs","broken_gost_prbs","can_sha384","cannot_sha384","broken_sha384","can_sha384_prbs","cannot_sha384_prbs","broken_sha384_prbs","is_internal","is_forwarding","is_external","is_internal_prbs","is_forwarding_prbs","is_external_prbs"
2017-06-20T23:59:59Z,195,378,305,155,376,195,288,148,51,35,0,0,0,0,0,0,3,374,3,195,0,377,0,195,0,0,0,0,0,0,0,0,16,323,35,13,177,27,265,108,0,147,77,3,298,75,0,157,58,2,264,109,0,147,78,3,295,77,1,156,60,3,295,77,1,156,60,3,295,77,1,156,60,3,251,121,1,140,87,4,295,80,1,156,61,3,296,80,0,157,61,2,0,378,0,0,195,3,0,378,0,0,195,3,285,87,1,151,68,4,292,80,0,155,61,2,266,38,70,149,34,46
2017-06-21T23:59:59Z,194,378,305,154,377,194,291,148,55,38,0,0,0,0,0,0,3,374,3,194,0,377,0,194,0,0,0,0,0,0,0,0,17,320,37,13,176,29,261,111,0,145,79,3,297,76,0,156,59,2,261,112,0,145,80,3,295,77,0,156,60,2,296,77,0,156,60,2,295,77,0,156,60,2,248,124,0,139,89,3,294,81,0,156,62,2,294,81,0,156,62,2,0,378,0,0,194,3,0,378,0,0,194,3,287,85,0,151,66,3,292,81,0,154,62,2,263,38,73,148,34,47
2017-06-22T23:59:59Z,192,379,304,151,378,192,288,144,54,37,0,0,0,0,0,0,4,373,4,191,0,378,0,192,0,0,0,0,0,0,0,0,16,323,36,12,175,27,262,112,0,144,79,2,297,77,0,154,59,1,260,114,0,143,81,2,296,78,0,154,60,1,296,78,0,154,60,1,296,78,0,154,60,1,249,125,0,138,89,2,294,83,0,154,63,1,295,83,0,154,63,1,0,379,0,0,192,2,0,379,0,0,192,2,287,86,1,150,66,3,292,82,1,152,62,2,263,39,73,147,34,47
2017-06-23T23:59:59Z,191,372,298,150,371,191,284,143,49,34,0,0,0,0,0,0,4,366,4,190,0,371,1,191,0,0,0,0,0,0,0,0,16,319,33,12,174,26,259,108,0,143,78,3,290,77,0,153,60,2,258,109,0,142,79,3,291,76,0,153,59,2,291,76,0,153,59,2,291,76,0,153,59,2,247,120,0,137,87,3,291,79,0,153,60,2,292,79,0,153,60,2,0,372,0,0,191,3,0,372,0,0,191,3,283,83,1,149,64,4,287,80,1,151,61,3,260,39,69,146,35,45
2017-06-24T23:59:59Z,188,367,293,147,366,188,277,140,52,36,0,0,0,0,0,0,4,361,4,187,0,366,0,188,0,0,0,0,0,0,0,0,17,312,34,13,171,25,253,109,0,139,78,2,285,77,0,149,60,1,253,109,0,139,78,2,286,76,0,149,59,1,286,76,0,149,59,1,286,76,0,149,59,1,242,120,0,134,86,2,286,79,0,149,60,1,287,79,0,149,60,1,0,367,0,0,188,2,0,367,0,0,188,2,277,84,1,145,65,3,282,80,1,147,61,2,254,39,70,143,35,45
2017-06-25T23:59:59Z,189,372,299,149,371,189,284,142,52,36,0,0,0,0,0,0,4,366,4,188,0,371,0,189,0,0,0,0,0,0,0,0,16,320,32,12,173,24,258,109,0,140,77,2,288,79,0,150,60,1,258,109,0,140,78,2,287,79,1,150,60,2,287,80,0,150,61,1,287,80,0,150,61,1,245,122,0,134,87,2,287,83,0,150,62,1,288,83,0,150,62,1,0,372,0,0,189,2,0,372,0,0,189,2,278,88,1,146,67,3,285,82,1,148,61,2,258,41,69,143,36,45
2017-06-26T23:59:59Z,196,385,310,155,384,196,292,147,51,35,0,0,0,0,0,0,4,379,4,195,0,384,0,196,0,0,0,0,0,0,0,0,17,329,35,13,179,26,268,112,0,145,80,2,301,79,0,156,61,1,268,112,0,145,80,2,301,79,0,156,61,1,301,79,0,156,61,1,301,79,0,156,61,1,256,124,0,140,89,2,300,83,0,156,63,1,301,83,0,156,63,1,0,385,0,0,196,2,0,385,0,0,196,2,291,88,1,152,68,3,297,83,1,154,63,2,267,42,72,147,38,47
2017-06-27T23:59:59Z,194,377,302,153,376,194,283,144,48,33,0,0,0,0,0,0,4,371,4,193,0,376,0,194,0,0,0,0,0,0,0,0,17,324,32,13,177,24,264,108,0,142,78,2,293,78,1,153,60,2,264,108,0,143,78,2,294,78,0,153,60,1,294,78,0,153,60,1,294,78,0,153,60,1,252,120,0,138,87,2,293,82,0,153,62,1,294,82,0,153,62,1,0,377,0,0,194,2,0,377,0,0,194,2,283,88,1,149,68,3,290,82,1,151,62,2,263,42,68,145,38,44
2017-06-28T23:59:59Z,195,381,305,154,380,195,291,147,50,35,0,0,0,0,0,0,4,375,4,194,0,380,0,195,0,0,0,0,0,0,0,0,18,326,33,14,177,26,266,110,0,145,79,3,297,79,0,155,60,3,264,112,0,144,81,3,296,80,0,155,61,3,296,80,0,155,61,2,296,80,0,155,61,2,251,125,0,137,90,4,294,85,0,155,64,3,295,85,0,155,64,3,0,381,0,1,195,3,0,381,0,0,195,3,285,90,1,149,68,5,294,82,1,153,61,3,264,42,71,147,38,46
2017-06-29T23:59:59Z,194,380,305,153,380,194,290,147,49,33,0,0,0,0,0,0,5,374,5,193,0,380,0,194,0,0,0,0,0,0,0,0,18,325,34,14,177,25,264,112,0,143,80,2,296,80,0,154,61,1,265,111,0,143,79,2,297,79,0,154,60,1,297,79,0,154,60,1,297,79,0,154,60,1,251,125,0,136,88,2,295,84,0,154,63,1,295,84,0,154,63,1,0,380,0,0,194,2,0,380,0,0,194,2,285,90,1,148,67,3,294,82,1,152,61,2,263,42,72,145,38,46
2017-06-30T23:59:59Z,193,377,302,152,377,193,286,146,49,34,0,0,0,0,0,0,5,371,5,192,0,377,0,193,0,0,0,0,0,0,0,0,18,324,32,14,177,24,264,109,0,144,78,2,294,79,0,154,60,1,263,110,0,143,79,2,295,78,0,154,59,1,295,78,0,154,59,1,294,78,1,154,59,2,249,123,1,136,88,3,294,82,0,154,61,1,294,82,0,154,61,1,0,377,0,0,193,2,0,377,0,0,193,2,282,90,1,148,67,3,293,80,1,152,59,2,261,42,71,144,38,46
2017-07-01T23:59:59Z,193,373,298,152,373,193,283,146,49,34,0,0,0,0,0,0,4,368,4,192,0,373,0,193,0,0,0,0,0,0,0,0,18,319,33,14,175,25,259,110,0,141,79,2,290,79,0,153,60,1,258,111,0,141,80,2,289,80,0,153,61,1,289,80,0,153,61,1,289,80,0,153,61,1,244,124,1,134,89,3,290,82,0,153,61,1,290,82,0,153,61,1,0,373,0,0,193,2,0,373,0,0,193,2,278,90,1,147,67,3,287,82,1,151,61,2,256,43,71,142,39,46
2017-07-02T23:59:59Z,194,379,304,153,379,194,286,146,50,35,0,0,0,0,0,0,5,372,5,192,0,378,0,193,0,0,0,0,0,0,0,0,17,326,33,13,177,25,263,112,0,143,81,2,293,81,0,153,62,1,262,112,0,142,81,2,295,80,0,154,61,1,295,80,0,154,61,1,295,80,0,154,61,1,249,126,0,136,90,2,293,85,0,154,64,1,293,85,0,154,64,1,0,379,0,0,194,2,0,379,0,0,194,2,281,92,1,147,69,3,291,83,1,151,62,2,262,43,71,144,40,46
2017-07-03T23:59:59Z,196,386,311,157,386,196,296,150,50,34,0,0,0,0,0,0,6,379,5,195,0,386,0,196,0,0,0,0,0,0,0,0,17,332,34,13,179,25,268,114,0,144,80,2,300,82,0,155,61,2,269,113,0,145,79,2,300,82,0,155,61,2,300,82,0,155,61,2,300,82,0,155,61,2,255,127,0,138,88,2,299,86,0,155,63,2,299,86,0,155,63,2,0,386,0,0,196,2,0,386,0,0,196,2,287,94,1,149,69,3,297,85,1,153,62,3,271,40,72,148,37,46
2017-07-04T23:59:59Z,197,390,315,158,390,197,298,150,51,34,0,0,0,0,0,0,5,384,4,197,0,390,0,197,0,0,0,0,0,0,0,0,17,336,34,13,180,25,271,115,0,145,80,2,303,83,0,156,62,1,270,116,0,145,81,2,302,84,0,156,63,1,302,84,0,156,63,1,302,84,0,156,63,1,255,131,0,137,91,2,301,88,0,156,65,1,301,88,0,156,65,1,0,390,0,0,197,2,0,389,1,0,197,3,289,96,1,149,71,3,299,87,1,154,64,2,273,41,73,148,38,47
2017-07-05T23:59:59Z,197,390,314,157,390,197,295,148,50,34,0,0,0,0,0,0,5,384,4,196,0,390,0,197,0,0,0,0,0,0,0,0,17,335,35,13,180,25,272,114,0,147,80,2,305,81,0,157,60,1,272,114,0,147,80,2,304,82,0,157,61,1,304,82,0,157,61,1,304,82,0,157,61,1,257,129,0,139,90,2,304,85,0,157,62,1,304,85,0,157,62,1,0,390,0,0,197,2,0,390,0,0,197,2,291,94,1,150,69,3,301,85,1,155,62,2,274,40,73,149,37,47
2017-07-06T23:59:59Z,199,390,314,159,389,198,292,151,49,33,0,0,0,0,0,0,6,383,5,198,0,388,0,197,0,0,0,0,0,0,0,0,17,337,33,13,183,24,272,113,0,147,79,2,302,82,1,156,61,2,270,114,1,146,80,3,302,83,0,157,62,1,303,82,0,157,61,1,303,82,0,157,61,1,256,129,0,139,90,2,302,85,1,156,62,2,303,85,0,157,62,1,0,390,0,0,199,2,0,390,0,0,199,2,290,94,1,150,69,3,299,86,1,155,63,2,273,42,72,149,39,46
2017-07-07T23:59:59Z,199,391,315,159,391,199,299,152,50,33,0,0,0,0,0,0,6,384,5,198,0,389,0,197,0,0,0,0,0,0,0,0,17,335,36,13,182,25,271,115,0,147,80,2,305,81,0,157,60,1,271,115,0,147,80,2,304,82,0,157,61,1,304,82,0,157,61,1,304,82,0,157,61,1,255,130,1,138,90,3,304,85,0,157,63,1,303,86,0,157,63,1,0,391,0,0,199,2,0,391,0,0,199,2,290,95,1,150,70,3,301,85,1,155,62,2,271,43,74,148,40,47
2017-07-08T23:59:59Z,199,390,314,159,389,199,299,152,49,33,0,0,0,0,0,0,5,384,4,198,0,388,0,197,0,0,0,0,0,0,0,0,17,337,33,13,183,24,271,114,0,147,80,2,302,83,0,157,62,1,272,113,0,147,79,2,303,82,0,157,61,1,303,82,0,157,61,1,303,82,0,157,61,1,257,128,0,139,89,2,301,87,0,157,64,1,301,87,0,157,64,1,0,390,0,0,199,2,0,390,0,0,199,2,291,93,1,150,68,3,300,85,1,155,62,2,274,41,72,150,38,46
2017-07-09T23:59:59Z,199,401,326,160,399,199,310,153,51,34,0,0,0,0,0,0,5,395,4,198,0,399,0,198,0,0,0,0,0,0,0,0,17,346,35,13,183,24,282,114,0,150,80,1,315,81,0,160,61,1,283,113,0,151,79,1,315,80,1,159,60,2,316,80,0,160,60,1,316,80,0,160,60,1,267,129,0,142,90,1,316,83,0,160,61,1,316,83,0,160,61,1,0,401,0,0,199,1,0,401,0,0,199,1,303,92,1,153,68,2,312,84,1,158,62,2,284,39,75,151,37,47
2017-07-10T23:59:59Z,199,397,322,161,397,199,306,154,48,33,0,0,0,0,0,0,5,391,4,198,1,395,1,198,0,0,0,0,0,0,0,0,17,346,31,13,183,22,282,111,0,150,78,1,311,82,0,160,61,1,280,112,1,149,79,2,311,82,0,160,61,1,311,82,0,160,62,1,311,82,0,160,61,1,266,127,0,142,89,1,311,85,0,160,62,1,311,85,0,160,62,1,0,397,0,0,199,1,0,397,0,0,199,1,297,94,2,153,69,3,307,85,2,158,62,3,281,42,71,151,39,45
2017-07-11T23:59:59Z,198,395,323,161,395,198,307,154,50,34,0,0,0,0,0,0,5,389,4,197,0,395,0,198,0,0,0,0,0,0,0,0,15,344,33,12,182,23,279,112,0,150,78,1,310,81,0,160,60,1,281,110,0,150,77,1,313,78,0,160,58,1,312,79,0,160,58,1,312,79,0,160,58,1,267,124,0,142,86,1,312,82,0,160,60,1,312,82,0,160,60,1,0,395,0,0,198,1,0,395,0,0,198,1,299,91,1,153,67,2,308,83,1,158,61,2,282,39,71,152,36,45
2017-07-12T23:59:59Z,199,393,320,161,393,199,304,154,51,35,0,0,0,0,0,0,5,387,4,198,0,393,0,199,0,0,0,0,0,0,0,0,15,340,35,12,182,25,273,116,0,148,82,1,306,83,0,159,62,1,273,116,0,148,82,1,306,83,0,159,62,1,306,83,0,159,62,1,306,83,0,159,62,1,260,129,0,140,91,1,306,86,0,159,63,1,306,86,0,159,63,1,0,393,0,0,199,1,0,393,0,0,199,1,296,92,1,152,68,2,304,85,1,157,62,2,277,40,73,150,37,47
2017-07-13T23:59:59Z,195,392,320,158,392,195,304,151,48,33,0,0,0,0,0,0,6,385,5,194,0,392,0,195,0,0,0,0,0,0,0,0,15,342,32,11,180,23,277,111,0,147,78,1,307,81,0,157,60,1,277,111,0,147,78,1,307,81,0,157,60,1,307,81,0,157,60,1,307,81,0,157,60,1,264,124,0,139,87,1,308,83,0,157,61,1,307,84,0,157,61,1,0,392,0,0,195,1,0,392,0,0,195,1,297,90,1,150,66,2,305,83,1,155,60,2,281,38,70,150,35,45
2017-07-14T23:59:59Z,199,401,329,162,401,199,313,155,50,34,0,0,0,0,0,0,6,394,5,198,0,401,0,199,0,0,0,0,0,0,0,0,14,350,34,11,184,24,284,113,0,150,79,1,316,81,0,160,60,1,284,113,0,150,79,1,316,81,0,160,60,1,316,81,0,160,60,1,316,81,0,160,60,1,271,126,0,142,88,1,316,84,0,160,61,1,317,83,0,160,60,1,0,401,0,0,199,1,0,401,0,0,199,1,305,91,1,153,67,2,313,84,1,158,61,2,288,42,68,152,38,44
2017-07-15T23:59:59Z,198,396,325,160,396,198,309,153,49,33,0,0,0,0,0,0,5,390,4,197,0,396,0,198,0,0,0,0,0,0,0,0,14,344,35,11,182,24,281,111,0,150,78,1,314,78,0,160,58,1,281,111,0,150,78,1,314,78,0,160,58,1,314,78,0,160,58,1,314,78,0,160,58,1,268,124,0,142,87,1,314,81,0,160,59,1,314,81,0,160,59,1,0,396,0,0,198,1,0,396,0,0,198,1,303,88,1,153,65,2,311,81,1,158,59,2,287,39,67,152,36,43
2017-07-16T23:59:59Z,199,398,326,160,398,199,310,153,49,33,0,0,0,0,0,0,5,392,4,198,0,398,0,199,0,0,0,0,0,0,0,0,14,347,34,11,183,23,284,110,0,150,77,1,316,78,0,160,58,1,283,111,0,150,78,1,315,79,0,160,59,1,315,79,0,160,59,1,314,80,0,160,60,1,270,124,0,142,87,1,315,82,0,160,60,1,315,82,0,160,60,1,0,398,0,0,199,1,0,398,0,0,199,1,304,89,1,153,66,2,311,83,1,158,61,2,289,40,66,152,37,42
2017-07-17T23:59:59Z,201,398,333,166,398,201,317,159,50,33,0,0,0,0,0,0,5,392,4,200,0,398,0,201,0,0,0,0,0,0,0,0,14,345,36,11,183,24,282,112,0,149,78,1,316,78,0,161,58,1,281,113,0,149,79,1,314,80,0,161,60,1,314,80,0,161,60,1,313,80,1,161,60,2,268,126,0,141,88,1,313,84,0,161,62,1,313,84,0,161,62,1,0,398,0,0,201,1,0,398,0,0,201,1,304,89,1,154,66,2,312,82,1,159,60,2,288,40,67,152,37,42
2017-07-18T23:59:59Z,200,404,339,166,404,200,316,155,54,35,0,0,0,0,0,0,5,398,4,199,0,404,0,200,0,0,0,0,0,0,0,0,15,347,39,12,183,26,284,116,0,151,80,1,321,79,0,162,59,1,284,115,1,151,80,2,322,78,0,162,58,1,322,78,0,162,58,1,322,78,0,162,58,1,271,129,0,143,89,1,321,82,0,162,60,1,321,82,0,162,60,1,0,404,0,0,200,1,0,404,0,0,200,1,309,89,2,155,66,3,320,80,1,160,58,2,291,39,71,154,36,44
2017-07-19T23:59:59Z,199,400,351,176,400,199,284,154,55,36,0,0,0,0,0,0,5,394,4,198,0,399,1,199,0,0,0,0,0,0,0,0,15,343,39,12,182,27,284,112,0,151,77,2,321,75,0,162,56,2,283,113,0,151,78,2,321,75,0,162,56,2,321,75,0,162,56,2,320,75,1,162,56,3,270,126,0,143,87,2,320,79,0,162,58,2,320,79,0,162,58,3,0,400,0,0,199,3,0,400,0,0,199,3,310,85,1,155,63,3,318,78,1,160,57,3,290,38,69,154,35,43
2017-07-20T23:59:59Z,198,399,349,175,399,198,251,139,52,34,0,0,0,0,0,0,5,393,4,197,0,399,0,198,0,0,0,0,0,0,0,0,15,344,37,12,181,25,284,111,0,150,77,1,319,76,0,161,57,1,283,112,0,150,78,1,318,77,0,161,58,1,318,77,0,161,58,1,318,77,0,161,58,1,270,125,0,142,87,1,317,81,0,161,60,1,317,81,0,161,60,1,0,399,0,0,198,1,0,399,0,0,198,1,308,86,1,154,64,2,315,80,1,159,59,2,289,40,67,153,37,42
2017-07-21T23:59:59Z,202,402,351,178,402,202,253,141,55,36,0,0,0,0,0,0,6,395,5,201,0,402,0,202,0,0,0,0,0,0,0,0,16,344,39,12,184,26,284,114,0,152,79,1,321,77,0,164,58,1,285,113,0,152,78,1,323,75,0,164,56,1,323,75,0,164,56,1,323,75,0,164,56,1,272,126,0,144,87,1,320,81,0,164,60,1,320,81,0,164,60,1,0,402,0,0,202,1,0,402,0,0,202,1,310,87,1,157,65,2,318,80,1,162,59,2,292,38,69,155,35,43
2017-07-22T23:59:59Z,197,391,342,174,391,197,247,136,52,34,0,0,0,0,0,0,6,384,5,196,0,391,0,197,0,0,0,0,0,0,0,0,15,337,36,12,179,24,278,109,0,148,75,1,313,74,0,160,55,1,278,109,0,148,75,1,313,74,0,160,55,1,313,74,0,160,55,1,314,73,0,160,55,1,265,122,0,140,84,1,310,80,0,160,59,1,310,80,0,160,59,1,0,391,0,0,197,1,0,391,0,0,197,1,301,85,1,153,63,2,308,79,1,158,58,2,286,36,66,152,33,41
2017-07-23T23:59:59Z,199,397,347,175,397,199,249,137,55,36,0,0,0,0,0,0,5,391,4,198,0,397,0,199,0,0,0,0,0,0,0,0,15,341,38,12,181,25,281,112,0,149,77,1,317,76,0,161,57,1,280,113,0,149,78,1,317,76,0,161,57,1,318,75,0,161,57,1,318,75,0,161,57,1,267,126,0,141,87,1,316,80,0,161,59,1,316,80,0,161,59,1,0,397,0,0,199,1,0,397,0,0,199,1,305,87,1,154,65,2,314,79,1,159,58,2,287,39,68,152,36,42
2017-07-24T23:59:59Z,202,404,352,179,404,202,251,142,54,35,0,0,0,0,0,0,5,398,4,201,0,404,0,202,0,0,0,0,0,0,0,0,15,346,40,12,183,26,288,112,0,153,77,1,326,74,0,165,55,1,287,113,0,153,78,1,324,76,0,165,57,1,325,75,0,165,57,1,324,76,0,165,57,1,273,127,0,145,87,1,322,81,0,163,59,1,325,78,0,165,57,1,0,404,0,0,202,1,0,404,0,0,202,1,305,93,2,157,70,3,322,78,1,163,57,2,293,39,69,155,36,43
2017-07-25T23:59:59Z,203,405,353,179,405,203,255,139,55,36,0,0,0,0,0,0,5,399,4,202,0,405,0,203,0,0,0,0,0,0,0,0,16,346,40,12,184,26,288,113,0,154,78,1,326,75,0,166,56,1,288,113,0,154,78,1,325,76,0,166,57,1,325,76,0,166,57,1,325,76,0,166,57,1,274,127,0,146,87,1,324,80,0,166,59,1,324,80,0,166,59,1,0,405,0,0,203,1,0,405,0,0,203,1,313,87,1,159,64,2,324,77,1,164,56,2,295,38,69,157,35,43
2017-07-26T23:59:59Z,204,411,359,181,411,204,256,142,58,38,0,0,0,0,0,0,5,405,4,203,0,411,0,204,0,0,0,0,0,0,0,0,15,350,43,12,185,28,292,115,0,155,79,1,333,74,0,167,55,1,291,116,0,155,80,1,332,75,0,167,56,1,333,74,0,167,56,1,332,75,0,167,56,1,277,130,0,147,89,1,331,79,0,167,58,1,331,79,0,167,58,1,0,411,0,0,204,1,0,411,0,0,204,1,320,86,1,160,63,2,328,79,1,165,58,2,297,39,72,157,36,45
2017-07-27T23:59:59Z,200,403,351,176,403,200,260,144,56,36,0,0,0,0,0,0,5,397,4,199,0,403,0,200,0,0,0,0,0,0,0,0,15,344,41,12,182,27,285,114,0,150,79,1,324,75,0,162,56,1,285,114,0,150,80,1,324,75,0,162,57,1,325,74,0,162,56,1,325,74,0,162,56,1,270,129,0,142,89,1,322,80,0,162,59,1,322,80,0,162,59,1,0,403,0,0,200,1,0,403,0,0,200,1,311,87,1,155,64,2,320,79,1,160,58,2,290,39,71,153,36,44
2017-07-28T23:59:59Z,198,396,344,173,396,198,249,137,57,37,0,0,0,0,0,0,5,390,4,197,0,396,0,198,0,0,0,0,0,0,0,0,15,337,41,12,180,27,278,114,0,148,79,1,317,75,0,160,56,1,278,114,0,148,79,1,318,74,0,160,55,1,318,74,0,160,55,1,318,74,0,160,55,1,264,128,0,140,88,1,316,79,0,160,58,1,316,79,0,160,58,1,0,396,0,0,198,1,0,396,0,0,198,1,304,87,1,153,64,2,315,77,1,158,56,2,282,40,71,150,37,44
2017-07-29T23:59:59Z,199,396,344,174,396,199,248,136,55,35,0,0,0,0,0,0,6,389,5,198,0,396,0,199,0,0,0,0,0,0,0,0,16,337,40,13,179,26,280,112,0,149,78,1,318,74,0,161,56,1,279,113,0,149,79,1,316,76,0,161,58,1,316,76,0,161,58,1,317,75,0,161,57,1,264,128,0,140,89,1,317,78,0,161,58,1,317,78,0,161,58,1,0,396,0,0,199,1,0,396,0,0,199,1,304,87,1,153,65,2,314,78,1,159,58,2,283,42,68,150,39,42
2017-07-30T23:59:59Z,199,391,337,173,391,199,243,134,56,37,0,0,0,0,0,0,4,386,3,198,0,391,0,199,0,0,0,0,0,0,0,0,16,332,40,13,179,26,276,111,0,149,78,1,314,73,0,161,55,1,276,111,0,149,78,1,313,74,0,161,56,1,314,73,0,161,55,1,313,74,0,161,56,1,261,126,0,140,88,1,311,79,0,161,59,1,311,79,0,161,59,1,0,391,0,0,199,1,0,391,0,0,199,1,299,87,1,153,65,2,309,78,1,159,58,2,277,43,68,150,40,42
2017-07-31T23:59:59Z,196,395,342,171,394,196,248,139,58,38,0,0,0,0,0,0,5,389,4,195,0,395,0,196,0,0,0,0,0,0,0,0,17,334,41,13,177,27,279,112,0,148,77,1,318,73,0,160,54,1,278,113,0,148,78,1,318,73,0,160,54,1,318,73,0,160,54,1,319,72,0,160,54,1,263,128,0,139,88,1,318,76,0,160,55,1,317,77,0,160,56,1,0,395,0,0,196,1,0,395,0,0,196,1,305,85,1,152,62,2,315,76,1,158,55,2,282,39,71,150,36,44
2017-08-01T23:59:59Z,197,396,342,172,395,197,252,140,58,38,0,0,0,0,0,0,4,391,3,196,0,395,0,197,0,0,0,0,0,0,0,0,16,336,41,13,178,27,279,113,0,148,78,1,318,74,0,160,55,1,278,114,0,148,79,1,318,74,0,160,55,1,319,73,0,160,55,1,319,73,0,160,55,1,263,129,0,139,89,1,316,79,0,160,58,1,316,79,0,160,58,1,0,396,0,0,197,1,0,396,0,0,197,1,304,87,1,152,64,2,316,76,1,158,55,2,282,40,71,150,37,44
2017-08-02T23:59:59Z,196,396,342,171,394,196,253,137,55,37,0,0,0,0,0,0,4,391,3,195,0,396,0,196,0,0,0,0,0,0,0,0,16,339,38,13,178,26,280,112,0,147,78,1,316,76,0,158,56,1,280,112,0,147,78,1,316,76,0,158,56,1,316,76,0,158,56,1,317,75,0,158,56,1,265,127,0,138,88,1,317,78,0,159,57,1,317,78,0,159,57,1,0,396,0,0,196,1,0,396,0,0,196,1,302,89,1,150,65,2,312,80,1,156,58,2,280,45,68,148,40,43
2017-08-03T23:59:59Z,194,387,333,168,387,194,248,138,55,37,0,0,0,0,0,0,4,382,3,193,0,387,0,194,0,0,0,0,0,0,0,0,16,329,39,13,175,26,272,111,0,145,78,1,309,74,0,156,55,1,272,111,0,145,79,1,308,75,0,156,56,1,309,74,0,156,56,1,308,75,0,156,56,1,256,127,0,136,89,1,308,78,0,156,57,1,308,78,0,156,57,1,0,387,0,0,194,1,0,387,0,0,194,1,295,87,1,148,64,2,305,78,1,154,57,2,275,41,68,147,38,43
2017-08-04T23:59:59Z,194,390,334,169,390,194,246,137,55,37,0,0,0,0,0,0,4,385,3,193,0,390,0,194,0,0,0,0,0,0,0,0,16,332,39,13,177,27,272,114,0,145,79,1,309,77,0,156,57,1,271,115,0,145,80,1,309,77,0,156,57,1,309,77,0,156,57,1,309,77,0,156,57,1,256,130,0,136,90,1,307,82,0,156,60,1,307,82,0,156,60,1,0,390,0,0,194,1,0,390,0,0,194,1,296,89,1,148,65,2,306,80,1,154,58,2,274,42,71,146,39,44
2017-08-05T23:59:59Z,194,388,333,169,387,194,246,137,53,36,0,0,0,0,0,0,5,382,4,193,0,388,0,194,0,0,0,0,0,0,0,0,16,332,37,13,176,25,273,111,0,146,78,1,308,76,0,156,56,1,272,112,0,146,79,1,307,77,0,156,57,1,307,77,0,156,57,1,307,77,0,156,57,1,257,127,0,137,89,1,306,81,0,156,59,1,306,81,0,156,59,1,0,388,0,0,194,1,0,388,0,0,194,1,294,89,1,148,65,2,304,80,1,154,58,2,275,41,69,147,38,44
2017-08-06T23:59:59Z,197,393,336,170,393,197,242,135,53,36,0,0,0,0,0,0,4,388,3,196,0,393,0,197,0,0,0,0,0,0,0,0,16,338,36,13,180,25,276,113,0,147,80,1,310,79,0,157,59,1,276,113,0,147,80,1,310,79,0,157,59,1,311,78,0,157,58,1,311,78,0,157,58,1,261,128,0,138,90,1,308,84,0,157,62,1,308,84,0,157,62,1,0,393,0,0,197,1,0,393,0,0,197,1,297,91,1,149,67,2,307,82,1,155,60,2,279,42,69,148,39,44
2017-08-07T23:59:59Z,202,403,343,173,403,202,249,139,58,39,0,0,0,0,0,0,4,398,3,201,0,403,0,202,0,0,0,0,0,0,0,0,16,341,43,13,182,29,279,120,0,151,84,1,320,79,0,163,59,1,278,121,0,151,85,1,318,81,0,163,61,1,318,81,0,163,61,1,318,81,0,163,61,1,263,136,0,142,95,1,317,85,0,162,63,1,317,85,0,162,63,1,0,403,0,0,202,1,0,403,0,0,202,1,304,94,1,154,70,2,316,83,1,160,61,2,284,42,74,153,39,47
2017-08-08T23:59:59Z,200,396,338,172,396,200,245,137,55,37,0,0,0,0,0,0,4,391,3,199,0,396,0,200,0,0,0,0,0,0,0,0,16,337,40,13,182,27,275,117,0,150,82,1,313,79,0,160,59,1,274,118,0,150,83,1,312,80,0,160,60,1,313,79,0,160,60,1,313,79,0,160,60,1,259,133,0,141,93,1,311,84,0,160,62,1,311,84,0,160,62,1,0,396,0,0,200,1,0,396,0,0,200,1,298,93,1,152,69,2,310,82,1,158,60,2,281,42,70,152,39,45
2017-08-09T23:59:59Z,201,400,343,173,400,201,249,140,57,38,0,0,0,0,0,0,5,394,4,200,0,400,0,201,0,0,0,0,0,0,0,0,16,340,41,13,183,28,277,119,0,151,83,1,316,80,0,162,60,1,276,120,0,151,84,1,316,80,0,162,60,1,315,81,0,162,61,1,316,80,0,162,60,1,261,135,0,142,94,1,315,84,0,162,62,1,315,84,0,162,62,1,0,400,0,0,201,1,0,400,0,0,201,1,302,93,1,154,69,2,313,83,1,160,61,2,281,42,74,152,39,47
2017-08-10T23:59:59Z,199,401,345,173,401,199,245,137,57,38,0,0,0,0,0,0,4,396,3,198,0,401,0,199,0,0,0,0,0,0,0,0,16,342,40,13,182,27,280,117,0,151,81,1,318,79,0,161,59,1,279,118,0,151,82,1,318,79,0,161,59,1,319,78,0,161,59,1,318,79,0,161,59,1,264,133,0,142,92,1,318,82,0,161,60,1,318,82,0,161,60,1,0,401,0,0,199,1,0,401,0,0,199,1,304,92,1,153,68,2,314,83,1,159,61,2,285,40,73,153,37,46
2017-08-11T23:59:59Z,196,394,339,170,394,196,247,139,56,38,0,0,0,0,0,0,4,389,3,195,0,394,0,196,0,0,0,0,0,0,0,0,16,336,39,13,179,27,274,116,0,148,81,1,311,79,0,158,59,1,274,116,0,148,81,1,312,78,0,158,58,1,312,78,0,158,58,1,312,78,0,158,58,1,259,131,0,139,91,1,309,84,0,158,62,1,309,84,0,158,62,1,0,394,0,0,196,1,0,394,0,0,196,1,298,91,1,150,67,2,308,82,1,156,60,2,277,42,72,150,38,46
2017-08-12T23:59:59Z,199,396,339,170,396,199,249,138,60,40,0,0,0,0,0,0,5,390,4,198,0,396,0,199,0,0,0,0,0,0,0,0,16,334,43,13,181,29,272,121,0,149,83,1,313,80,0,161,60,1,272,121,0,149,83,1,313,80,0,161,60,1,313,80,0,161,60,1,313,80,0,161,60,1,257,136,0,140,93,1,312,84,0,161,62,1,312,84,0,161,62,1,0,396,0,0,199,1,0,396,0,0,199,1,300,92,1,153,68,2,309,84,1,159,62,2,274,42,77,150,39,48
2017-08-13T23:59:59Z,199,401,343,169,401,199,253,136,59,39,0,0,0,0,0,0,5,395,4,198,0,401,0,199,0,0,0,0,0,0,0,0,16,340,42,13,183,28,275,123,0,150,84,1,315,83,0,160,62,1,274,124,0,150,85,1,314,84,0,160,63,1,314,84,0,160,63,1,314,84,0,160,63,1,259,139,0,141,95,1,313,88,0,160,65,1,313,88,0,160,65,1,0,401,0,0,199,1,0,401,0,0,199,1,301,96,1,152,71,2,311,87,1,158,64,2,279,43,76,151,40,47
2017-08-14T23:59:59Z,203,402,340,171,402,203,247,137,56,38,0,0,0,0,0,0,4,397,3,202,0,402,0,203,0,0,0,0,0,0,0,0,16,342,41,13,186,28,280,119,0,152,83,1,319,80,0,163,61,1,280,119,0,152,84,1,319,80,0,163,61,1,318,80,1,163,61,2,320,79,0,163,61,1,264,135,0,143,94,1,319,83,0,163,62,1,319,83,0,163,62,1,0,402,0,0,203,1,0,402,0,0,203,1,305,93,1,155,70,2,315,84,1,161,63,2,283,44,72,153,41,45